Starlink 6374

operational
NORAD ID: 57338 Int'l Des: 2023-099 Owner: SPXS Country: US Constellation: starlink
LEOCIRCULAR

Über Starlink 6374

Beschreibung wird geladen...

Live-Position

3D-Globus wird geladen...

Nächste Überflüge

Höhenverlauf

Altitude vs Time

uPlot chart will show altitude changes over time

Zweizeiliger Elementsatz

1 57338U 23099L 26033.50815118 .00000584 00000-0 58283-4 0 9999
2 57338 43.0036 80.1957 0001235 269.9527 90.1174 15.02533181140821
Epoch: 2. Feb. 2026 • Age: 15 hours

Aktueller Status

Höhe 563.1 km
Geschwindigkeit 7.59 km/s
Subsatellitenpunkt 43.14°N, 8.5°W
Startdatum 16. Juli 2023
Alter 2.5 years
Typ internet

Technische Details

Klassifizierung Payload
Masse 305.00 kg
Trockenmasse 290.00 kg
Gesamtmasse 305.00 kg
Länge 0.20 m
Durchmesser 2.80 m
Spannweite 9.00 m
Form Box + pan
Hersteller SPXS
Bus-Typ Starlink
Phasenstatus In Orbit
Besitzer/Staat SPXS/US

Große Konstellationen

Loading constellations...